Fremont, MI

6:35 PM EST on November 18, 2019 (GMT -0500)
Fremont

Weather History for KFFX - October, 2019

Change the Weather History Date:

Wednesday, October 16, 2019

  Actual Average (KMKG) Record (KMKG)
Temperature  
Mean Temperature 46 °F -  
Max Temperature 48 °F 58 °F 81 °F (1968)
Min Temperature 43 °F 41 °F 25 °F (1977)
Degree Days  
Heating Degree Days 20    
Moisture  
Dew Point 41 °F    
Average Humidity 84    
Maximum Humidity 98    
Minimum Humidity 65    
Precipitation  
Precipitation 0.00 in - - ()
Sea Level Pressure  
Sea Level Pressure 29.73 in    
Wind  
Wind Speed 11 mph ()    
Max Wind Speed 26 mph    
Max Gust Speed 33 mph    
Visibility 8.7 miles    
Events Rain    
Averages and records for this station are not official NWS values.
T = Trace of Precipitation, MM = Missing Value Source: Averaged Metar Reports

Daily Weather History Graph

Daily Weather History Graph

Search for Another Location

Airport or City:

Astronomy

Oct. 16, 2019 Rise Set
Actual Time 7:58 AM EDT 6:59 PM EDT
Civil Twilight 7:30 AM EDT 7:28 PM EDT
Nautical Twilight 6:56 AM EDT 8:01 PM EDT
Astronomical Twilight 6:23 AM EDT 8:34 PM EDT
Moon 8:48 PM EDT (10/16) 10:32 AM EDT (10/16)
Length of Visible Light 11h 58m
Length of Day
11h 00m
Waning Gibbous, 93% of the Moon is Illuminated
Oct 16
Waning Gibbous
Oct 21
Last Quarter
Oct 27
New
Nov 4
First Quarter
Nov 12
Full

Hourly Weather History & Observations

Time (EDT) Temp. Windchill Dew Point Humidity Pressure Visibility Wind Dir Wind Speed Gust Speed Precip Events Conditions
12:15 AM 48.4 °F - 45.7 °F 90% 29.66 in 10.0 mi WNW 6.9 mph - N/A   Overcast
12:35 AM 48.2 °F - 44.8 °F 88% 29.66 in 10.0 mi West 9.2 mph - N/A   Overcast
12:59 AM 47.8 °F - 43.2 °F 84% 29.66 in 10.0 mi West 11.5 mph - N/A   Overcast
1:17 AM 47.5 °F - 43.2 °F 85% 29.66 in 10.0 mi West 5.8 mph - N/A   Overcast
1:35 AM 47.3 °F - 42.6 °F 84% 29.66 in 10.0 mi West 5.8 mph - N/A   Overcast
1:36 AM 47.3 °F - 42.6 °F 84% 29.66 in 10.0 mi West 6.9 mph - N/A   Overcast
1:55 AM 47.3 °F - 41.7 °F 81% 29.65 in 10.0 mi West 8.1 mph - N/A   Overcast
2:15 AM 47.3 °F - 38.8 °F 72% 29.65 in 10.0 mi West 6.9 mph - N/A   Overcast
2:38 AM 46.8 °F - 36.7 °F 68% 29.65 in 10.0 mi West 12.7 mph 19.6 mph N/A   Overcast
2:56 AM 46.6 °F - 36.5 °F 68% 29.65 in 10.0 mi West 9.2 mph - N/A   Overcast
3:15 AM 46.4 °F 43.5 °F 37.4 °F 71% 29.65 in 10.0 mi West 5.8 mph - N/A   Overcast
3:16 AM 46.4 °F 42.4 °F 37.8 °F 72% 29.65 in 10.0 mi West 8.1 mph - N/A   Overcast
3:35 AM 45.7 °F 38.8 °F 36.3 °F 70% 29.65 in 10.0 mi West 16.1 mph 19.6 mph N/A   Overcast
3:59 AM 45.3 °F 40.1 °F 36.5 °F 71% 29.64 in 10.0 mi West 10.4 mph 17.3 mph N/A   Overcast
4:17 AM 44.8 °F 39.9 °F 35.2 °F 69% 29.64 in 10.0 mi West 9.2 mph 18.4 mph N/A   Overcast
4:35 AM 44.6 °F 39.2 °F 36.7 °F 74% 29.63 in 10.0 mi WSW 10.4 mph - N/A   Overcast
4:36 AM 44.6 °F 40.2 °F 36.9 °F 74% 29.63 in 10.0 mi WSW 8.1 mph - N/A   Overcast
4:55 AM 44.6 °F 39.2 °F 39.0 °F 81% 29.62 in 10.0 mi West 10.4 mph 16.1 mph N/A   Overcast
4:56 AM 44.6 °F 39.7 °F 39.2 °F 81% 29.62 in 10.0 mi WSW 9.2 mph 16.1 mph N/A   Overcast
5:15 AM 43.7 °F 39.1 °F 41.9 °F 93% 29.62 in 4.0 mi WSW 8.1 mph - N/A   Overcast
5:38 AM 43.7 °F 38.1 °F 43.0 °F 97% 29.61 in 5.0 mi SW 10.4 mph - N/A Rain Rain
5:56 AM 44.8 °F 40.4 °F 44.1 °F 97% 29.61 in 5.0 mi West 8.1 mph - N/A   Light Drizzle
6:15 AM 45.5 °F 39.2 °F 45.0 °F 98% 29.61 in 5.0 mi West 13.8 mph 21.9 mph N/A Rain Light Rain
6:16 AM 45.5 °F 38.9 °F 45.0 °F 98% 29.61 in 5.0 mi West 15.0 mph 21.9 mph N/A Rain Light Rain
6:35 AM 46.0 °F 39.6 °F 45.0 °F 96% 29.61 in 10.0 mi WNW 15.0 mph 18.4 mph N/A   Overcast
6:36 AM 46.0 °F 39.6 °F 45.0 °F 96% 29.61 in 10.0 mi WNW 15.0 mph - N/A   Overcast
6:59 AM 45.9 °F 40.0 °F 44.4 °F 95% 29.61 in 5.0 mi WNW 12.7 mph 19.6 mph N/A   Drizzle
7:17 AM 45.7 °F 40.2 °F 44.8 °F 97% 29.61 in 5.0 mi WNW 11.5 mph - N/A   Drizzle
7:35 AM 45.7 °F 39.5 °F 45.0 °F 97% 29.60 in 7.0 mi WNW 13.8 mph 17.3 mph N/A   Light Drizzle
7:55 AM 46.0 °F 39.3 °F 44.6 °F 95% 29.60 in 7.0 mi WNW 16.1 mph 23.0 mph N/A   Light Drizzle
7:56 AM 46.0 °F 39.6 °F 44.6 °F 95% 29.60 in 7.0 mi WNW 15.0 mph 23.0 mph N/A   Light Drizzle
8:15 AM 46.2 °F 39.5 °F 44.6 °F 94% 29.60 in 10.0 mi WNW 16.1 mph 28.8 mph N/A   Light Drizzle
8:20 AM 46.2 °F 40.1 °F 44.6 °F 94% 29.60 in 7.0 mi WNW 13.8 mph 28.8 mph N/A   Overcast
8:38 AM 46.4 °F 38.7 °F 44.8 °F 94% 29.60 in 10.0 mi NW 20.7 mph 27.6 mph N/A   Overcast
8:56 AM 46.6 °F - 44.6 °F 93% 29.60 in 10.0 mi NW 15.0 mph 27.6 mph N/A   Overcast
9:15 AM 46.4 °F 39.2 °F 44.6 °F 93% 29.61 in 10.0 mi NW 18.4 mph 28.8 mph N/A   Overcast
9:16 AM 46.4 °F 39.2 °F 44.6 °F 93% 29.61 in 10.0 mi NW 18.4 mph 28.8 mph N/A   Overcast
9:35 AM 46.6 °F - 44.6 °F 93% 29.62 in 7.0 mi NW 18.4 mph 29.9 mph N/A   Overcast
9:36 AM 46.6 °F - 44.6 °F 93% 29.62 in 7.0 mi NW 20.7 mph 29.9 mph N/A   Overcast
9:59 AM 46.4 °F 39.8 °F 44.8 °F 94% 29.63 in 5.0 mi NW 16.1 mph 29.9 mph N/A   Drizzle
10:17 AM 46.4 °F 39.8 °F 45.0 °F 95% 29.63 in 7.0 mi NW 16.1 mph 28.8 mph N/A   Overcast
10:35 AM 46.6 °F - 44.8 °F 93% 29.64 in 4.0 mi NW 18.4 mph 25.3 mph N/A Rain Rain
10:55 AM 46.8 °F - 44.6 °F 92% 29.66 in 7.0 mi NW 18.4 mph 27.6 mph N/A Rain Light Rain
10:56 AM 46.8 °F - 44.6 °F 92% 29.66 in 7.0 mi NW 20.7 mph 27.6 mph N/A Rain Light Rain
11:15 AM 46.6 °F - 44.6 °F 93% 29.67 in 4.0 mi NNW 19.6 mph 27.6 mph N/A Rain Light Rain
11:20 AM 46.6 °F - 44.6 °F 93% 29.67 in 4.0 mi NW 16.1 mph 28.8 mph N/A Rain Light Rain
11:38 AM 46.6 °F - 44.6 °F 93% 29.68 in 5.0 mi NW 16.1 mph 21.9 mph N/A   Overcast
11:56 AM 46.9 °F - 45.0 °F 93% 29.69 in 5.0 mi NNW 18.4 mph 27.6 mph N/A   Overcast
12:15 PM 46.9 °F - 45.0 °F 93% 29.70 in 5.0 mi NW 18.4 mph 24.2 mph N/A Rain Rain
12:16 PM 46.9 °F - 45.0 °F 93% 29.70 in 5.0 mi NNW 18.4 mph 24.2 mph N/A Rain Rain
12:35 PM 46.9 °F - 44.6 °F 92% 29.71 in 5.0 mi NW 15.0 mph 25.3 mph N/A Rain Light Rain
12:36 PM 46.9 °F - 44.8 °F 92% 29.71 in 7.0 mi NNW 16.1 mph 25.3 mph N/A Rain Rain
12:59 PM 47.3 °F - 44.6 °F 90% 29.72 in 10.0 mi NNW 19.6 mph 27.6 mph N/A   Light Drizzle
1:17 PM 47.5 °F - 43.3 °F 86% 29.72 in 10.0 mi NNW 24.2 mph 32.2 mph N/A   Overcast
1:35 PM 48.2 °F - 42.1 °F 79% 29.73 in 10.0 mi NNW 26.5 mph 33.4 mph N/A   Overcast
1:55 PM 47.7 °F - 44.8 °F 90% 29.73 in 10.0 mi NNW 15.0 mph 26.5 mph N/A Rain Light Rain
1:56 PM 47.7 °F - 44.8 °F 90% 29.73 in 10.0 mi NNW 16.1 mph 21.9 mph N/A Rain Light Rain
2:15 PM 47.5 °F - 43.9 °F 87% 29.74 in 7.0 mi NNW 23.0 mph 27.6 mph N/A   Light Drizzle
2:20 PM 47.7 °F - 44.4 °F 89% 29.74 in 7.0 mi NNW 17.3 mph 27.6 mph N/A   Overcast
2:38 PM 47.8 °F - 43.9 °F 86% 29.75 in 10.0 mi NNW 13.8 mph 28.8 mph N/A   Overcast
3:15 PM 47.1 °F - 44.2 °F 90% 29.76 in 7.0 mi NW 18.4 mph 25.3 mph N/A Rain Rain
3:35 PM 47.3 °F - 43.9 °F 88% 29.77 in 10.0 mi NNW 20.7 mph 26.5 mph N/A Rain Light Rain
3:59 PM 46.9 °F - 44.8 °F 92% 29.79 in 10.0 mi NW 11.5 mph 20.7 mph N/A   Drizzle
4:17 PM 48.2 °F - 43.9 °F 85% 29.79 in 10.0 mi NNW 17.3 mph 24.2 mph N/A   Overcast
4:35 PM 47.5 °F - 43.2 °F 85% 29.80 in 7.0 mi NNW 13.8 mph 29.9 mph N/A Rain Rain
4:36 PM 47.3 °F - 43.7 °F 87% 29.80 in 7.0 mi NNW 16.1 mph 29.9 mph N/A Rain Rain
4:55 PM 47.5 °F - 39.9 °F 75% 29.80 in 10.0 mi NNW 18.4 mph 28.8 mph N/A   Light Drizzle
5:15 PM 47.5 °F - 37.8 °F 69% 29.81 in 10.0 mi NNW 13.8 mph 21.9 mph N/A   Overcast
5:38 PM 47.5 °F - 37.0 °F 67% 29.82 in 10.0 mi NNW 13.8 mph 18.4 mph N/A   Mostly Cloudy
5:56 PM 47.3 °F - 37.4 °F 68% 29.83 in 10.0 mi NNW 17.3 mph 23.0 mph N/A   Overcast
6:15 PM 46.4 °F 40.1 °F 38.5 °F 74% 29.84 in 10.0 mi NNW 15.0 mph 24.2 mph N/A   Drizzle
6:35 PM 45.5 °F 38.9 °F 42.3 °F 88% 29.85 in 10.0 mi NNW 15.0 mph 23.0 mph N/A Rain Light Rain
6:36 PM 45.5 °F 39.6 °F 42.3 °F 88% 29.85 in 10.0 mi NNW 12.7 mph 18.4 mph N/A Rain Light Rain
6:59 PM 45.5 °F 41.3 °F 43.0 °F 91% 29.85 in 10.0 mi NNW 8.1 mph - N/A Rain Rain
7:17 PM 45.1 °F 40.3 °F 42.6 °F 91% 29.85 in 10.0 mi NW 9.2 mph - N/A   Overcast
7:35 PM 44.6 °F 40.7 °F 41.9 °F 90% 29.87 in 10.0 mi NW 6.9 mph - N/A   Overcast
7:55 PM 45.0 °F 40.6 °F 36.0 °F 71% 29.88 in 10.0 mi NNW 8.1 mph 17.3 mph N/A   Overcast
7:56 PM 45.0 °F 40.6 °F 36.3 °F 72% 29.88 in 10.0 mi NNW 8.1 mph 17.3 mph N/A   Overcast
8:15 PM 45.0 °F 41.2 °F 37.6 °F 75% 29.88 in 10.0 mi NNW 6.9 mph - N/A   Overcast
8:20 PM 45.1 °F 42.0 °F 36.9 °F 73% 29.88 in 10.0 mi NW 5.8 mph - N/A   Overcast
8:38 PM 44.6 °F 40.2 °F 37.0 °F 75% 29.89 in 10.0 mi WNW 8.1 mph - N/A   Mostly Cloudy
8:56 PM 44.4 °F 38.6 °F 36.5 °F 74% 29.89 in 10.0 mi NW 11.5 mph - N/A   Scattered Clouds
9:15 PM 45.0 °F 39.3 °F 34.3 °F 66% 29.90 in 10.0 mi NNW 11.5 mph 18.4 mph N/A   Mostly Cloudy
9:16 PM 45.0 °F 39.3 °F 34.5 °F 67% 29.90 in 10.0 mi NNW 11.5 mph 18.4 mph N/A   Mostly Cloudy
9:35 PM 45.5 °F 40.8 °F 34.9 °F 66% 29.91 in 10.0 mi NNW 9.2 mph 18.4 mph N/A Rain Light Rain
9:36 PM 45.3 °F 41.1 °F 35.1 °F 67% 29.90 in 10.0 mi NNW 8.1 mph - N/A Rain Light Rain
9:59 PM 44.6 °F 39.7 °F 37.9 °F 77% 29.91 in 10.0 mi NW 9.2 mph - N/A   Overcast
10:17 PM 44.6 °F 40.7 °F 41.0 °F 87% 29.91 in 10.0 mi NW 6.9 mph - N/A Rain Light Rain
10:35 PM 43.7 °F 38.6 °F 40.5 °F 88% 29.91 in 10.0 mi NW 9.2 mph - N/A   Mostly Cloudy
10:36 PM 43.7 °F 39.1 °F 40.5 °F 88% 29.91 in 10.0 mi NW 8.1 mph - N/A   Mostly Cloudy
10:55 PM 45.1 °F 37.9 °F 34.2 °F 65% 29.91 in 10.0 mi NNW 17.3 mph 25.3 mph N/A Rain Light Rain
10:56 PM 45.1 °F 37.9 °F 34.3 °F 66% 29.91 in 10.0 mi NNW 17.3 mph 25.3 mph N/A Rain Light Rain
11:15 PM 44.8 °F 37.7 °F 35.4 °F 70% 29.92 in 10.0 mi NNW 16.1 mph 25.3 mph N/A Rain Light Rain
11:20 PM 44.6 °F 38.1 °F 36.1 °F 72% 29.92 in 10.0 mi NNW 13.8 mph 19.6 mph N/A Rain Light Rain
11:38 PM 44.2 °F 38.8 °F 34.9 °F 70% 29.92 in 10.0 mi NW 10.4 mph - N/A   Overcast
11:56 PM 43.7 °F 37.7 °F 34.9 °F 71% 29.92 in 10.0 mi NNW 11.5 mph 18.4 mph N/A   Mostly Cloudy